When you browse on this site, cookies collect data to enhance your experience and personalize the content and advertising you see.
Visit our Privacy Policy to learn more. By continuing to use the site, you agree to this use of cookies and data.
  • In Austria
  • List of Countries
  • For 7 days
  • Water Temperature
  • Weather Map
  • News
  • Weather Widgets
  • user-avatar
    Login

    Hourly Weather Klagenfurt

    Today, 23 October, Wednesday

    Time Temperature Precipitation Wind Pressure Humidity
    00:00 +11°C° 0 mm 0 mps 693 mmHg 83%
    01:00 +12°C° 0 mm 1 mps 694 mmHg 83%
    02:00 +11°C° 0 mm 0 mps 693 mmHg 82%
    03:00 +11°C° 0 mm 0 mps 693 mmHg 82%
    04:00 +10°C° 0 mm 0 mps 692 mmHg 81%
    05:00 +10°C° 0 mm 0 mps 692 mmHg 81%
    06:00 +11°C° 0 mm 0 mps 692 mmHg 81%
    07:00 +11°C° 0 mm 0 mps 693 mmHg 81%
    08:00 +13°C° 0 mm 0 mps 693 mmHg 75%
    09:00 +16°C° 0 mm 0 mps 693 mmHg 69%
    10:00 +18°C° 0 mm 0 mps 694 mmHg 63%
    11:00 +19°C° 0 mm 0 mps 693 mmHg 60%
    12:00 +20°C° 0 mm 0 mps 693 mmHg 57%
    13:00 +22°C° 0 mm 1 mps 693 mmHg 55%
    14:00 +21°C° 0 mm 1 mps 693 mmHg 62%
    15:00 +18°C° 0 mm 0 mps 692 mmHg 68%
    16:00 +17°C° 0 mm 0 mps 692 mmHg 75%
    17:00 +16°C° 0 mm 1 mps 691 mmHg 78%
    18:00 +15°C° 0 mm 1 mps 691 mmHg 80%
    19:00 +13°C° 0 mm 1 mps 691 mmHg 82%
    20:00 +13°C° 0 mm 1 mps 691 mmHg 82%
    21:00 +12°C° 0 mm 1 mps 691 mmHg 82%
    22:00 +12°C° 0 mm 1 mps 691 mmHg 82%
    23:00 +12°C° 0 mm 1 mps 690 mmHg 83%

    Tomorrow, 24 October, Thursday

    Time Temperature Precipitation Wind Pressure Humidity
    00:00 +11°C° 0 mm 1 mps 690 mmHg 83%
    01:00 +11°C° 0 mm 1 mps 690 mmHg 83%
    02:00 +11°C° 0 mm 1 mps 689 mmHg 84%
    03:00 +11°C° 0 mm 1 mps 689 mmHg 85%
    04:00 +10°C° 0 mm 1 mps 689 mmHg 86%
    05:00 +10°C° 0 mm 1 mps 689 mmHg 87%
    06:00 +10°C° 0 mm 1 mps 689 mmHg 88%
    07:00 +10°C° 0 mm 1 mps 688 mmHg 90%
    08:00 +12°C° 0 mm 1 mps 689 mmHg 83%
    09:00 +14°C° 0 mm 1 mps 689 mmHg 76%
    10:00 +16°C° 0 mm 1 mps 690 mmHg 69%
    11:00 +18°C° 0 mm 1 mps 690 mmHg 65%
    12:00 +18°C° 0 mm 2 mps 690 mmHg 61%
    13:00 +19°C° 0 mm 2 mps 689 mmHg 56%
    14:00 +18°C° 0 mm 2 mps 689 mmHg 62%
    15:00 +17°C° 0 mm 2 mps 689 mmHg 67%
    16:00 +16°C° 0 mm 1 mps 688 mmHg 72%
    17:00 +15°C° 0 mm 1 mps 688 mmHg 76%
    18:00 +13°C° 0 mm 1 mps 688 mmHg 81%
    19:00 +12°C° 0 mm 1 mps 689 mmHg 85%
    20:00 +12°C° 0 mm 1 mps 689 mmHg 84%
    21:00 +11°C° 0 mm 1 mps 689 mmHg 83%
    22:00 +11°C° 0 mm 1 mps 689 mmHg 82%
    23:00 +11°C° 0 mm 1 mps 689 mmHg 81%

    Day after tomorrow, 25 October, Friday

    Time Temperature Precipitation Wind Pressure Humidity
    00:00 +11°C° 0 mm 1 mps 689 mmHg 81%
    01:00 +10°C° 0 mm 1 mps 689 mmHg 80%
    02:00 +9°C° 0 mm 0 mps 689 mmHg 80%
    03:00 +9°C° 0 mm 0 mps 689 mmHg 80%
    04:00 +9°C° 0 mm 0 mps 689 mmHg 80%
    05:00 +8°C° 0 mm 0 mps 690 mmHg 81%
    06:00 +8°C° 0 mm 0 mps 690 mmHg 82%
    07:00 +9°C° 0 mm 1 mps 691 mmHg 83%
    08:00 +11°C° 0 mm 1 mps 692 mmHg 76%
    09:00 +14°C° 0 mm 1 mps 692 mmHg 70%
    10:00 +16°C° 0 mm 1 mps 693 mmHg 64%
    11:00 +16°C° 0 mm 1 mps 693 mmHg 62%
    12:00 +18°C° 0 mm 1 mps 694 mmHg 60%
    13:00 +19°C° 0 mm 1 mps 694 mmHg 58%
    14:00 +18°C° 0 mm 1 mps 694 mmHg 63%
    15:00 +16°C° 0 mm 1 mps 693 mmHg 69%
    16:00 +15°C° 0 mm 0 mps 693 mmHg 75%
    17:00 +14°C° 0 mm 1 mps 693 mmHg 80%
    18:00 +13°C° 0 mm 1 mps 693 mmHg 85%
    19:00 +11°C° 0 mm 1 mps 693 mmHg 90%
    20:00 +11°C° 0 mm 1 mps 693 mmHg 91%
    21:00 +11°C° 0 mm 1 mps 693 mmHg 91%
    22:00 +10°C° 0 mm 1 mps 693 mmHg 92%
    23:00 +10°C° 0 mm 1 mps 693 mmHg 91%

    26 October, Saturday

    Time Temperature Precipitation Wind Pressure Humidity
    00:00 +9°C° 0 mm 0 mps 693 mmHg 91%
    01:00 +9°C° 0 mm 0 mps 692 mmHg 90%
    02:00 +8°C° 0 mm 0 mps 692 mmHg 89%
    03:00 +8°C° 0 mm 0 mps 692 mmHg 88%
    04:00 +8°C° 0 mm 0 mps 692 mmHg 87%
    05:00 +8°C° 0 mm 0 mps 692 mmHg 87%
    06:00 +7°C° 0 mm 0 mps 692 mmHg 86%
    07:00 +7°C° 0 mm 0 mps 692 mmHg 85%
    08:00 +10°C° 0 mm 0 mps 693 mmHg 77%
    09:00 +12°C° 0 mm 0 mps 693 mmHg 70%
    10:00 +15°C° 0 mm 0 mps 694 mmHg 62%
    11:00 +16°C° 0 mm 0 mps 694 mmHg 58%
    12:00 +17°C° 0 mm 0 mps 694 mmHg 53%
    13:00 +20°C° 0 mm 1 mps 694 mmHg 49%
    14:00 +17°C° 0 mm 0 mps 693 mmHg 56%
    15:00 +16°C° 0 mm 0 mps 693 mmHg 63%
    16:00 +15°C° 0 mm 0 mps 692 mmHg 70%
    17:00 +14°C° 0 mm 1 mps 692 mmHg 72%
    18:00 +12°C° 0 mm 1 mps 692 mmHg 74%
    19:00 +11°C° 0 mm 1 mps 692 mmHg 76%
    20:00 +10°C° 0 mm 1 mps 692 mmHg 72%
    21:00 +10°C° 0 mm 1 mps 692 mmHg 69%
    22:00 +10°C° 0 mm 1 mps 692 mmHg 66%
    23:00 +9°C° 0 mm 1 mps 692 mmHg 65%

    27 October, Sunday

    Time Temperature Precipitation Wind Pressure Humidity
    00:00 +9°C° 0 mm 1 mps 692 mmHg 64%
    01:00 +9°C° 0 mm 1 mps 692 mmHg 62%
    02:00 +9°C° 0 mm 1 mps 691 mmHg 63%
    03:00 +9°C° 0 mm 1 mps 691 mmHg 63%
    04:00 +9°C° 0 mm 1 mps 691 mmHg 63%
    05:00 +9°C° 0 mm 1 mps 691 mmHg 63%
    06:00 +9°C° 0 mm 1 mps 691 mmHg 63%
    07:00 +9°C° 0 mm 1 mps 691 mmHg 63%
    08:00 +11°C° 0 mm 1 mps 691 mmHg 59%
    09:00 +13°C° 0 mm 1 mps 692 mmHg 56%
    10:00 +16°C° 0 mm 1 mps 693 mmHg 52%
    11:00 +18°C° 0 mm 1 mps 692 mmHg 50%
    12:00 +19°C° 0 mm 1 mps 692 mmHg 49%
    13:00 +20°C° 0 mm 1 mps 692 mmHg 48%
    14:00 +19°C° 0 mm 1 mps 691 mmHg 55%
    15:00 +18°C° 0 mm 1 mps 691 mmHg 62%
    16:00 +15°C° 0 mm 1 mps 691 mmHg 69%
    17:00 +14°C° 0 mm 1 mps 690 mmHg 73%
    18:00 +12°C° 0 mm 1 mps 690 mmHg 76%
    19:00 +11°C° 0 mm 1 mps 690 mmHg 80%
    20:00 +10°C° 0 mm 1 mps 690 mmHg 79%
    21:00 +10°C° 0 mm 1 mps 690 mmHg 78%
    22:00 +10°C° 0 mm 1 mps 690 mmHg 77%
    23:00 +9°C° 0 mm 1 mps 690 mmHg 77%

    28 October, Monday

    Time Temperature Precipitation Wind Pressure Humidity
    00:00 +9°C° 0 mm 1 mps 690 mmHg 77%
    01:00 +9°C° 0 mm 1 mps 689 mmHg 77%
    02:00 +8°C° 0 mm 0 mps 689 mmHg 78%
    03:00 +8°C° 0 mm 0 mps 689 mmHg 78%
    04:00 +7°C° 0 mm 0 mps 689 mmHg 79%
    05:00 +7°C° 0 mm 0 mps 689 mmHg 79%
    06:00 +7°C° 0 mm 0 mps 689 mmHg 79%
    07:00 +7°C° 0 mm 0 mps 689 mmHg 79%
    08:00 +9°C° 0 mm 0 mps 689 mmHg 74%
    09:00 +11°C° 0 mm 0 mps 690 mmHg 69%
    10:00 +13°C° 0 mm 0 mps 690 mmHg 64%
    11:00 +15°C° 0 mm 1 mps 690 mmHg 63%
    12:00 +15°C° 0 mm 1 mps 690 mmHg 62%
    13:00 +16°C° 0 mm 1 mps 690 mmHg 61%
    14:00 +15°C° 0 mm 1 mps 690 mmHg 66%
    15:00 +14°C° 0 mm 1 mps 689 mmHg 71%
    16:00 +13°C° 0 mm 1 mps 689 mmHg 76%
    17:00 +13°C° 0 mm 1 mps 689 mmHg 79%
    18:00 +11°C° 0 mm 0 mps 689 mmHg 81%
    19:00 +10°C° 0 mm 0 mps 689 mmHg 84%
    20:00 +10°C° 0.2 mm 0 mps 689 mmHg 86%
    21:00 +10°C° 0.2 mm 0 mps 690 mmHg 87%
    22:00 +10°C° 0.2 mm 0 mps 690 mmHg 89%
    23:00 +9°C° 0.2 mm 0 mps 690 mmHg 90%

    29 October, Tuesday

    Time Temperature Precipitation Wind Pressure Humidity
    00:00 +9°C° 0.2 mm 0 mps 690 mmHg 91%
    01:00 +9°C° 0.2 mm 0 mps 690 mmHg 93%
    02:00 +10°C° 0.2 mm 1 mps 689 mmHg 94%
    03:00 +10°C° 0.2 mm 1 mps 689 mmHg 95%
    04:00 +10°C° 0.2 mm 1 mps 689 mmHg 97%
    05:00 +9°C° 0.4 mm 1 mps 690 mmHg 97%
    06:00 +9°C° 0.4 mm 1 mps 690 mmHg 97%
    07:00 +8°C° 0.4 mm 1 mps 690 mmHg 97%
    08:00 +8°C° 0.5 mm 1 mps 690 mmHg 97%
    09:00 +7°C° 0.5 mm 1 mps 690 mmHg 97%
    10:00 +7°C° 0.5 mm 1 mps 691 mmHg 96%
    11:00 +7°C° 0.5 mm 1 mps 691 mmHg 96%
    12:00 +6°C° 0.5 mm 1 mps 691 mmHg 96%
    13:00 +6°C° 0.5 mm 1 mps 691 mmHg 95%
    14:00 +6°C° 0.3 mm 1 mps 691 mmHg 95%
    15:00 +5°C° 0.3 mm 1 mps 691 mmHg 95%
    16:00 +5°C° 0.3 mm 1 mps 691 mmHg 95%
    17:00 +5°C° 0.2 mm 1 mps 691 mmHg 95%
    18:00 +4°C° 0.2 mm 1 mps 692 mmHg 96%
    19:00 +4°C° 0.2 mm 1 mps 692 mmHg 96%
    20:00 +4°C° 0.2 mm 1 mps 692 mmHg 96%
    21:00 +4°C° 0.2 mm 1 mps 693 mmHg 96%
    22:00 +4°C° 0.2 mm 1 mps 693 mmHg 96%
    23:00 +4°C° 0.2 mm 1 mps 693 mmHg 96%
    Show more